User: anonymous   Login
Location: Igri�s
(42.2144°N, 0.4320°W)
Time: 16:23:20
(UTC+00:00)
Language:

Cosmos 968 Rocket - Orbit

View from above orbital plane
View from above orbital plane
View from above satellite
View from above satellite

Ground track
Ground track

The orbit data is extracted from the following two-line orbital elements,

1 10521U 77119B   20296.10366373  .00000066  00000-0  28998-4 0  9994
2 10521  74.0275 163.5329 0022003 239.3211 120.5776 14.40796200248378
Epoch (UTC): 22 October 2020 02:29:16
Eccentricity: 0.0022003
inclination: 74.0275°
perigee height: 740 km
apogee height: 771 km
right ascension of ascending node: 163.5329°
argument of perigee: 239.3211°
revolutions per day: 14.40796200
mean anomaly at epoch: 120.5776°
orbit number at epoch: 24837

The dashed part of the orbit path shows where the satellite is in the earth's shadow,  

DLR